Showing default

SENTINEL 1B, 41456

Orbit data source: Space-Track

SENTINEL 1B, 41456 is an ESA payload satellite in SSO that was launched on Mon, 25 Apr 2016 UTC via a SOYUZ-ST-A launch vehicle from the French Guiana (FRGUI). Payload-class satellites include a variety of spacecraft equipped with specific instruments for various scientific and technological missions. These include communications satellites like Starlink; space stations such as the ISS; scientific satellites like the Hubble; Earth observation satellites from companies like Planet Labs, Umbra, and HawkEye 360; GPS; miniature CubeSats for education and research; and military/defense satellites.

Loading next visibility...
Identifier
41456, 2016-025A
Orbit
SSO
Country
Flag of ESAESA
Related business
Manufacturer
Thales Alenia
Mission
Non-operational Civil Radar Imaging
Bus & Motor
PRIMA, AOCS
Mass
2,157 kg wet, 2,027 kg dry
Launch date (UTC)
2016-04-25 (10 years ago)
Launch vehicle
SOYUZ-ST-A
Launch site
French Guiana (FRGUI)
Object type
Payload
Rocket body
Debris
Shape & HBR
Box + 4 Pan, 10.5 m
Radar Cross Section
19.678 m², Large (>1 m²)

Expand to show TLE details & history
Last TLE update: 7 hours ago

TLE from 7 hours ago
0 SENTINEL 1B
1 41456U 16025A   26257.28745021  .00000239  00000-0  24783-4 0  9997
2 41456  98.0871 321.4555 0012891 196.0808 164.0007 14.99459038557134
Epoch: 2026-09-14T06:53Z
TLE epoch observation values (Epoch: 2026-09-14T06:53:55.698Z)
Latitude
0.00004°
Longitude
-135.29649°
Altitude
580.22 km
Speed
7.566 km/s
True Right ascension
21h 25m 49s
True Declination
0° 00' 00"
Sunlit
Object was in full shadow at epoch
Visualization orbit readout
Latitude
Unknown
Longitude
Unknown
Altitude
Unknown
Speed
Unknown
Apparent Right ascension
Unknown
Apparent Declination
Unknown
Sunlit
N/A
Visualization observer readout
Local Sidereal Time
06:28:11
Azimuth
Unknown
Elevation
Unknown
Doppler factor
Unknown
Orbital elements
Apogee altitude
574.541 km
Perigee altitude
556.639 km
Semi-major axis
6,943.727 km
Eccentricity
0.00129
Inclination
98.0871°
RAAN
321.4555°
Arg. of periapsis
196.0808°
True anomaly
164.04135°
Mean anomaly
164.0007°
Eccentric anomaly
164.02103°
Mean motion
3.75106 °/min
Orbital period
95.97 mins
BSTAR
0.000024783
Loading maneuver chart data...
Computing Atmospheric mass density...
Loading historical data...
Loading historical data...
Loading historical data...
Loading historical data...
Loading historical data...
Loading historical data...
Loading historical data...

Documentation

Showing up to 5 results
|